Torna al catalogo

CZ-4C DEB

AttivoLEO
NORAD 40342·DEBRIS·🇨🇳 China

Lanciato Dec 10, 2014 da Jiuquan Satellite Launch Center

Loading…

Prossimi Passaggi (prossime 24 ore)

TLE

AggiornatoSource: Space-Track

Epoca: Sep 14, 2026, 00:52 UTC

1 40342U 14080E   26257.03653243  .00000008  00000-0  10791-3 0  9993
2 40342  63.3858 103.7818 0385122  10.7457 350.1507 13.44669782577225

Traccia CZ-4C DEB in tempo reale con AllMySat

Download on the App Store